Location: Warszawa
(52.2500°N, 21.0000°E)
Time: 10:34:22
(UTC+01:00)

Vanguard 2 - Visible Passes

Search period start: 31 January 2023 00:00
Search period end: 10 February 2023 00:00
Orbit: 553 x 2930 km, 32.9° (Epoch: 30 January)

Date Brightness Start Highest point End Pass type
(mag) Time Alt. Az. Time Alt. Az. Time Alt. Az.
31 Jan 11.3 01:35:37 19° SE 01:35:37 19° SE 01:39:07 10° SE visible
31 Jan 10.9 03:36:57 26° SSW 03:36:57 26° SSW 03:45:29 10° SSE visible
01 Feb 11.2 01:51:29 20° SE 01:51:29 20° SE 01:55:22 10° SE visible
01 Feb 11.0 03:52:49 22° SSW 03:52:49 22° SSW 04:00:52 10° S visible
01 Feb 11.5 21:26:50 10° SSW 21:26:52 10° SSW 21:26:52 10° SSW visible
02 Feb 11.2 02:07:24 20° SSE 02:07:24 20° SSE 02:11:27 10° SE visible
02 Feb 11.1 04:08:44 18° SSW 04:08:44 18° SSW 04:15:44 10° S visible
02 Feb 11.2 19:39:34 10° SSE 19:41:37 13° SSE 19:41:37 13° SSE visible
02 Feb 11.5 21:42:36 10° SSW 21:42:57 11° SSW 21:42:57 11° SSW visible
03 Feb 11.3 02:23:21 19° SSE 02:23:21 19° SSE 02:27:19 10° SSE visible
03 Feb 11.3 04:24:41 14° SW 04:24:41 14° SW 04:29:45 10° SSW visible
03 Feb 11.1 19:54:02 10° S 19:57:41 16° SSE 19:57:41 16° SSE visible
03 Feb 11.5 21:58:34 10° SW 21:59:02 11° SW 21:59:02 11° SW visible
04 Feb 11.3 02:39:20 17° S 02:39:20 17° S 02:42:54 10° SSE visible
04 Feb 11.4 04:40:41 10° SW 04:40:41 10° SW 04:40:54 10° SW visible
04 Feb 10.9 20:09:08 10° SSW 20:13:44 19° S 20:13:44 19° S visible
04 Feb 11.5 22:14:44 10° SW 22:15:04 11° SW 22:15:04 11° SW visible
05 Feb 11.4 02:55:22 15° S 02:55:22 15° S 02:58:08 10° S visible
05 Feb 10.9 20:24:41 10° SSW 20:29:45 22° S 20:29:45 22° S visible
05 Feb 11.5 22:31:02 10° SW 22:31:05 10° SW 22:31:05 10° SW visible
06 Feb 11.5 03:11:25 12° S 03:11:25 12° S 03:12:49 10° S visible
06 Feb 11.0 18:38:15 10° SSE 18:43:17 13° SE 18:44:23 13° SE visible
06 Feb 10.8 20:40:30 10° SSW 20:45:44 24° S 20:45:44 24° S visible
07 Feb 10.8 18:52:35 10° S 18:59:12 17° SE 19:00:20 17° SE visible
07 Feb 10.8 20:56:31 10° SW 21:01:40 25° SSW 21:01:40 25° SSW visible
08 Feb 10.7 19:07:43 10° S 19:15:13 21° SE 19:16:15 20° SE visible
08 Feb 10.8 21:12:44 10° SW 21:17:34 25° SSW 21:17:34 25° SSW visible
09 Feb 10.6 19:23:17 10° SSW 19:31:19 24° SSE 19:32:06 24° SE visible
09 Feb 10.8 21:29:03 10° SW 21:33:26 24° SW 21:33:26 24° SW visible
